Regional Weather Roundup
Issued by NWS Upton, NY

Current Version | Previous Version | Text Only | Print | Product List | Glossary Off
Versions: 1 2 3 4 5 6 7 8 9 10 11 12 13 14 15 16 17 18 19 20 21 22 23 24 25 26 27

000
ASUS41 KOKX 071508
RWROKX

REGIONAL WEATHER ROUNDUP
NATIONAL WEATHER SERVICE NEW YORK NY
1000 AM EST WED DEC 07 2016

NOTE: "FAIR" INDICATES FEW OR NO CLOUDS BELOW 12,000 FEET WITH NO
SIGNIFICANT WEATHER AND/OR OBSTRUCTIONS TO VISIBILITY.

NYZ071-072-176-178-NJZ106-104-071600-
NEW YORK CITY METRO AREA

CITY           SKY/WX    TMP DP  RH WIND       PRES   REMARKS
Central Park   CLOUDY    41  38  89 N5        30.02S FOG
Wall St Helipt CLOUDY    42  39  89 W7        30.02R
Bronx Bot Gard NOT AVBL
LaGuardia APRT CLOUDY    45  39  81 N7        30.00R
Kennedy INTL   NOT AVBL
Breezy Point     N/A     41 N/A N/A N3          N/A
Newark/Liberty DRIZZLE   40  39  97 N7        30.01R FOG
Teterboro      NOT AVBL
$$

NYZ177-179-078>081-071600-
LONG ISLAND NEW YORK

CITY           SKY/WX    TMP DP  RH WIND       PRES   REMARKS
Jones Beach      N/A     41 N/A N/A N7          N/A
Matinecock PT  NOT AVBL
Farmingdale    NOT AVBL
MacArthur/ISP  NOT AVBL
Shirley        NOT AVBL
Westhampton    NOT AVBL
Southampton    NOT AVBL
Bridgehampton  NOT AVBL
East Hampton   CLOUDY    40  38  93 N3        29.99R
Montauk          N/A     43  40  89 VRB6      30.00R
$$

NYZ052-065-067-071600-
HUDSON VALLEY

CITY           SKY/WX    TMP DP  RH WIND       PRES   REMARKS
White Plains   CLOUDY    39  35  86 W3        29.99R FOG
Newburgh       CLOUDY    36  36 100 VRB5      30.01R FOG     WCI  32
Montgomery     MIX PCPN  36  34  92 SW3       29.99S FOG
Poughkeepsie   NOT AVBL
Albany         DRIZZLE   34  32  92 S5        29.99R FOG     WCI  30
$$

NJZ001-105-106-008-010-013-015-019>022-104-071600-
NEW JERSEY

CITY           SKY/WX    TMP DP  RH WIND       PRES   REMARKS
Newark/Liberty DRIZZLE   40  39  97 N7        30.01R FOG
Teterboro      NOT AVBL
Caldwell       NOT AVBL
Somerville     CLOUDY    39  36  87 NW5       30.01R FOG
Linden         CLOUDY    40  37  90 NW7       30.01S FOG
Sussex         CLOUDY    36  36 100 CALM      30.00S FOG
Andover          N/A     35  34  96 CALM      30.01S
Trenton        NOT AVBL
Millville      NOT AVBL
Atlantic City  NOT AVBL
Wrightstown    CLOUDY    41  39  93 N7        29.98R
Toms River     CLOUDY    43  41  93 NW7       30.00S FOG
Belmar         CLOUDY    43  41  93 NW8       30.00R
$$

PAZ047>061-062-071-071600-
EASTERN PENNSYLVANIA

CITY           SKY/WX    TMP DP  RH WIND       PRES   REMARKS
Philadelphia   CLOUDY    42  39  89 N5        30.01F
Allentown      NOT AVBL
Scranton       NOT AVBL
$$

CTZ002-004>006-009-010-012-RIZ004-006-007-MAZ004-011-015-071600-
SOUTHERN NEW ENGLAND
 IN CT

CITY           SKY/WX    TMP DP  RH WIND       PRES   REMARKS
Bradley INTL   CLOUDY    37  34  89 CALM      30.01R FOG
Hartford       NOT AVBL
Danbury        NOT AVBL
Wtrbury/Oxford NOT AVBL
Bridgeport     NOT AVBL
Meriden        CLOUDY    39  35  86 N5        30.01R
New Haven      NOT AVBL
Chester        CLOUDY    37  37 100 N3        29.99R
Groton         NOT AVBL
Wilimantic     CLOUDY    39  37  93 NW3       30.01R

 IN RI

CITY           SKY/WX    TMP DP  RH WIND       PRES   REMARKS
Providence     NOT AVBL
Block Island   NOT AVBL
Westerly       CLOUDY    41  37  86 N7        29.99R
 IN MA

CITY           SKY/WX    TMP DP  RH WIND       PRES   REMARKS
Boston         NOT AVBL
Worcester      CLOUDY    33  31  92 CALM      29.96R
Westfield      NOT AVBL
Provincetown   NOT AVBL
Nantucket      NOT AVBL
$$

ANZ330-335-338-340-345-350-353-355-071600-
COASTAL MARINE OBSERVATIONS


STATION/POSITION TIME  SKY/WX   TEMP    WIND        PRES    VSBY  WAVE
                                AIR SEA DIR/SP/G                  HT/PER
                 (UTC)          (F)     (DEG/KT/KT) (MB)    (MI)  (FT/S)
NY HARB ENTRANCE 1350            45 53   10/ 10/ 14 1015.0          7/ 8
20 S FIRE ISLAND 1350            48 54   60/ 12/ 16 1013.7          8/ 8
GREAT SOUTH BAY  1430            42 43                N/A
23 SSW MONTAUK P 1350            45 54   60/ 14/ 16 1014.1          6/ 7
15 E BARNEGAT LI 1430               54                N/A           9/ 8
HUDSON CANYON    1350            50 58              1012.3         11/ 8
KINGS POINT      1430            40 48              1015.9
EXECUTION ROCKS  1430            41     350/  6/  8   N/A
CENTRAL LI SOUND 1415            41 50   50/ 10/ 12   N/A           2/ 4
EASTERN LI SOUND NOT AVBL
ROBBINS REEF     1430            40     330/  7/  8 1016.4
$$


>>>>>>>>>>>>>>>>>>>>>>>>>>>> KEY <<<<<<<<<<<<<<<<<<<<<<<<<<<
>                                                          <
>     SKY/WX - Sky Condition/Present Weather               <
>     TMP    - Temperature in Fahrenheit                   <
>     DP     - Dew Point in Fahrenheit                     <
>     RH     - Relative Humidity in Percent                <
>     WIND   - Direction (from) and Speed in MPH           <
>     PRES   - Mean Sea Level Pressure (inches of Hg)      <
>     WCI    - Wind Chill Index                            <
>     VSB    - VISIBILITY IN MILES                         <
>     HX     - HEAT INDEX                                  <
>     TC     - TEMPERATURE IN CELSIUS                      <
>     VRB    - VARIABLE WIND DIRECTION                     <
>                                                          <
>>>>>>>>>>>>>>>>>>>>>>>>>>>> KEY <<<<<<<<<<<<<<<<<<<<<<<<<<<




USA.gov is the U.S. government's official web portal to all federal, state and local government web resources and services.